Location: Unspecified
(0.0000°N, 0.0000°E)
Time: 16:31:35
(UTC-05:00)

CZ-3 Stage 3 - Visible Passes

Search period start: 25 September 2018 00:00
Search period end: 05 October 2018 00:00
Orbit: 368 x 34824 km, 30.5° (Epoch: 24 September)

Date Brightness Start Highest point End Pass type
(mag) Time Alt. Az. Time Alt. Az. Time Alt. Az.
25 Sep 10.0 16:03:57 10° W 17:05:31 18° WNW 19:02:22 10° WNW visible
26 Sep 6.8 11:48:28 10° WSW 12:50:59 75° WNW 21:28:35 10° E visible
27 Sep 6.7 08:09:37 10° SSW 14:41:52 51° NNE 17:40:43 10° ENE visible
28 Sep 10.1 15:54:17 10° W 16:55:57 18° WNW 18:53:01 10° WNW visible
29 Sep 4.2 00:37:34 10° WNW 00:50:59 31° SW 00:54:43 10° SSE visible
29 Sep 6.7 11:38:24 10° WSW 12:39:37 74° NW 21:18:38 10° E visible
30 Sep 6.7 07:59:32 10° SSW 14:34:56 50° NNE 17:30:50 10° ENE visible
01 Oct 10.2 15:44:37 10° W 16:46:26 18° WNW 18:43:49 10° WNW visible
02 Oct 4.3 00:27:23 10° WNW 00:40:48 29° SW 00:44:36 10° SSE visible
02 Oct 6.7 11:28:19 10° WSW 12:28:21 73° NW 21:08:42 10° E visible
03 Oct 6.6 07:49:27 10° SSW 14:28:27 50° NNE 17:05:25 28° NE visible
04 Oct 10.2 15:34:58 10° W 16:36:59 18° WNW 18:34:47 10° WNW visible
